Date,TemperatureHighF,TemperatureAvgF,TemperatureLowF,DewpointHighF,DewpointAvgF,DewpointLowF,HumidityHigh,HumidityAvg,HumidityLow,PressureMaxIn,PressureMinIn,WindSpeedMaxMPH,WindSpeedAvgMPH,GustSpeedMaxMPH,PrecipitationSumIn
2013-3-1,64,56,50,51,45,38,91,68,40,30.01,29.92,3,0,7,0.00
2013-3-2,60,50,41,43,37,31,81,63,34,30.06,29.96,5,1,15,0.00
2013-3-3,59,52,41,37,35,33,81,52,40,30.12,30.01,4,2,14,0.00
2013-3-4,67,52,31,43,35,27,97,58,28,30.27,30.15,2,0,8,0.00
2013-3-5,81,60,41,54,46,39,98,67,29,30.21,30.04,3,0,12,0.00
2013-3-6,73,60,46,61,42,24,96,59,16,30.14,29.96,6,2,16,0.01
2013-3-7,69,51,38,49,42,33,95,72,48,30.22,30.12,2,0,8,0.01
2013-3-8,72,55,41,53,46,40,99,78,38,30.25,30.15,2,0,6,0.00
2013-3-9,72,58,44,56,50,43,99,78,50,30.24,30.15,2,0,6,0.00
2013-3-10,76,63,50,60,55,49,97,78,50,30.20,30.11,2,0,7,0.00
2013-3-11,78,65,54,62,58,53,98,79,53,30.14,29.96,1,0,6,0.00
2013-3-12,75,68,60,70,64,57,96,88,79,30.02,29.91,4,1,12,0.16
2013-3-13,74,59,47,58,48,40,98,73,33,30.17,30.02,2,0,8,0.01
2013-3-14,65,53,43,47,42,38,94,70,42,30.26,30.15,2,1,9,0.00
2013-3-15,72,53,38,47,42,37,98,72,39,30.30,30.17,1,0,5,0.00
2013-3-16,82,60,41,55,48,40,99,71,29,30.22,30.07,2,0,8,0.00
2013-3-17,80,64,47,60,54,46,97,74,44,30.18,30.03,3,0,12,0.00
2013-3-18,80,71,62,67,63,59,94,78,60,30.09,29.90,3,0,13,0.00
2013-3-19,89,71,61,68,64,60,99,82,46,30.02,29.90,2,0,4,0.00
2013-3-20,78,70,62,70,64,57,99,84,65,29.98,29.80,3,0,12,0.00
2013-3-21,74,60,49,57,45,33,98,66,22,29.97,29.84,3,0,10,0.00
2013-3-22,77,59,41,63,52,40,98,81,45,30.04,29.93,1,0,5,0.36
2013-3-23,90,74,63,74,68,62,99,82,46,30.00,29.76,4,1,12,0.31
2013-3-24,88,72,66,72,68,63,99,89,55,29.89,29.65,7,1,23,0.59
2013-3-25,76,67,55,69,50,31,99,64,19,30.02,29.73,4,1,12,0.01
2013-3-26,64,53,44,43,33,26,73,50,24,30.24,30.02,6,1,14,0.01
2013-3-27,67,49,36,44,36,31,92,66,30,30.32,30.21,3,0,9,0.00
2013-3-28,70,53,39,47,41,34,96,69,30,30.31,30.21,1,0,5,0.00
2013-3-29,74,57,42,51,45,41,98,70,33,30.35,30.23,1,0,6,0.00
2013-3-30,78,61,45,56,51,44,98,73,45,30.29,30.15,2,0,8,0.00
2013-3-31,86,68,52,65,56,-100,96,72,38,30.21,30.03,3,1,11,0.00